This is the latest recevied weather packets stored in our database for station/object DL6JOE-10. If no packets are shown the sender has not sent any weather packets the latest 10 day(s).
| Time | Temp. | Humidity | Pressure | Rain* | Wind** | Luminosity | Snow |
|---|---|---|---|---|---|---|---|
| 1777672269 | 17.22° C | 32% | 970.3 hPa | - | - | - | - |
| 1777671369 | 17.78° C | 32% | 970.3 hPa | - | - | - | - |
| 1777670469 | 18.33° C | 31% | 970.4 hPa | - | - | - | - |
| 1777669569 | 18.33° C | 30% | 970.3 hPa | - | - | - | - |
| 1777668669 | 18.89° C | 30% | 970.3 hPa | - | - | - | - |
| 1777667769 | 18.89° C | 29% | 970.5 hPa | - | - | - | - |
| 1777666868 | 19.44° C | 29% | 970.5 hPa | - | - | - | - |
| 1777665968 | 20° C | 29% | 970.3 hPa | - | - | - | - |
| 1777665068 | 20.56° C | 28% | 970.3 hPa | - | - | - | - |
| 1777664168 | 20.56° C | 28% | 970.1 hPa | - | - | - | - |
| 1777663268 | 21.67° C | 27% | 970 hPa | - | - | - | - |
| 1777662368 | 21.67° C | 26% | 970 hPa | - | - | - | - |
| 1777661468 | 22.22° C | 26% | 969.8 hPa | - | - | - | - |
| 1777660568 | 22.78° C | 25% | 969.7 hPa | - | - | - | - |
| 1777659668 | 23.33° C | 24% | 969.7 hPa | - | - | - | - |
| 1777658768 | 23.89° C | 23% | 969.6 hPa | - | - | - | - |
| 1777657868 | 24.44° C | 23% | 969.5 hPa | - | - | - | - |
| 1777656967 | 24.44° C | 23% | 969.3 hPa | - | - | - | - |
| 1777656067 | 25° C | 22% | 969.4 hPa | - | - | - | - |
| 1777655167 | 25° C | 22% | 969.4 hPa | - | - | - | - |
| 1777654267 | 26.11° C | 21% | 969.4 hPa | - | - | - | - |
| 1777653367 | 26.11° C | 21% | 969.4 hPa | - | - | - | - |
| 1777652467 | 26.11° C | 21% | 969.5 hPa | - | - | - | - |
| 1777651567 | 26.67° C | 20% | 969.4 hPa | - | - | - | - |
| 1777650667 | 26.67° C | 20% | 969.5 hPa | - | - | - | - |
* Rain since midnight (hover to see other rain measurements)
** Current wind speed in m/s (hover to see current wind gust speed)